CDT,Max TemperatureF,Mean TemperatureF,Min TemperatureF,Max Dew PointF,MeanDew PointF,Min DewpointF,Max Humidity, Mean Humidity, Min Humidity, Max Sea Level PressureIn, Mean Sea Level PressureIn, Min Sea Level PressureIn, Max VisibilityMiles, Mean VisibilityMiles, Min VisibilityMiles, Max Wind SpeedMPH, Mean Wind SpeedMPH, Max Gust SpeedMPH,PrecipitationIn, CloudCover, Events, WindDirDegrees
2013-4-1,83,70,57,61,57,54,93,68,42,30.08,30.01,29.95,10,8,2,12,4,17,0.00,2,,101
2013-4-2,78,70,61,66,61,56,93,74,54,30.03,29.98,29.91,10,8,3,16,6,21,0.90,5,Rain,109
2013-4-3,65,56,47,63,50,44,93,85,77,30.10,29.99,29.88,10,8,2,14,8,22,0.20,8,Rain,30
2013-4-4,51,49,46,43,42,41,86,79,71,30.18,30.10,30.04,10,10,6,15,6,21,0.00,8,,325
2013-4-5,75,58,41,53,44,39,93,64,35,30.24,30.16,30.08,10,10,7,8,2,12,0.00,0,,308
2013-4-6,78,62,46,56,50,43,93,67,40,30.09,30.01,29.94,10,10,8,20,8,26,0.00,0,,164
2013-4-7,81,69,56,60,57,55,93,71,48,30.00,29.94,29.84,10,10,9,20,9,25,0.00,6,,150
2013-4-8,83,75,66,64,62,59,87,67,47,29.89,29.83,29.77,10,10,10,18,12,28,0.00,6,,162
2013-4-9,88,78,68,70,65,62,87,68,48,29.83,29.79,29.72,10,10,6,28,16,35,T,7,Rain,152
2013-4-10,79,62,45,71,59,44,96,88,79,29.90,29.79,29.73,10,9,2,17,10,23,0.18,8,Rain,198
2013-4-11,69,56,42,46,41,36,93,63,33,29.93,29.85,29.79,10,9,2,13,6,20,0.32,4,Rain,319
2013-4-12,79,60,40,48,42,37,96,60,24,30.02,29.95,29.90,10,10,10,6,2,,0.00,0,,127
2013-4-13,81,64,46,52,47,42,93,60,26,30.01,29.92,29.83,10,10,5,17,5,23,0.00,0,,130
2013-4-14,83,68,52,64,57,50,93,68,42,29.80,29.73,29.65,10,10,9,13,5,22,0.00,0,,162
2013-4-15,89,78,67,68,66,63,93,70,46,29.86,29.79,29.73,10,9,8,17,10,23,0.00,5,,170
2013-4-16,88,80,72,72,70,68,93,73,53,29.97,29.90,29.84,10,8,2,18,10,25,0.00,7,,153
2013-4-17,87,81,74,72,70,68,87,71,55,29.98,29.89,29.78,10,10,5,25,15,37,T,7,,155
2013-4-18,76,62,48,70,59,40,93,80,66,30.08,29.82,29.70,10,8,1,21,11,29,0.00,7,Rain,286
2013-4-19,64,53,42,40,33,29,89,58,26,30.24,30.19,30.09,10,10,10,18,7,28,0.00,0,,328
2013-4-20,73,55,36,44,36,30,92,57,22,30.26,30.18,30.08,10,10,10,20,6,25,0.00,0,,124
2013-4-21,75,59,43,50,44,40,89,61,33,30.22,30.15,30.08,10,10,10,15,4,20,0.00,0,,87
2013-4-22,82,65,48,55,50,45,86,60,33,30.14,30.05,29.93,10,10,6,15,5,18,0.00,0,,125
2013-4-23,83,70,56,65,59,54,97,74,51,30.03,29.96,29.89,10,7,0,14,8,21,0.00,7,Fog,167
2013-4-24,68,57,46,47,42,39,77,60,42,30.25,30.19,30.06,10,10,10,20,8,28,T,4,Rain,2
2013-4-25,74,64,54,47,44,41,66,49,31,30.33,30.26,30.22,10,10,10,15,8,21,0.00,3,,76
2013-4-26,84,73,61,66,58,44,84,68,52,30.22,30.16,30.05,10,10,10,17,9,23,0.00,6,,147
2013-4-27,87,77,66,68,65,64,93,72,51,30.12,30.05,29.96,10,9,5,18,5,23,T,5,Rain,176
2013-4-28,89,76,63,66,61,56,93,64,34,30.04,29.97,29.86,10,9,7,9,3,15,0.00,2,,223
2013-4-29,86,72,57,64,59,54,93,65,37,29.96,29.90,29.83,10,10,7,14,4,18,0.00,0,,136
2013-4-30,83,72,61,67,64,60,93,74,54,29.88,29.84,29.76,10,6,0,21,6,25,T,5,Fog-Rain,104